Regional Weather Roundup
Issued by NWS

Home | Current Version | Previous Version | Text Only | Print | Product List | Glossary Off
Versions: 1 2 3 4 5 6 7 8 9 10 11 12 13 14 15 16 17 18 19 20 21 22 23 24 25 26 27 28 29 30 31 32 33 34 35 36 37 38 39 40 41 42 43 44 45 46 47 48 49 50

000
ASUS43 KBIS 301801
RWRND

NORTH DAKOTA REGIONAL WEATHER ROUNDUP
NATIONAL WEATHER SERVICE BISMARCK ND
100 PM CDT MON MAR 30 2015

NOTE: "FAIR" INDICATES FEW OR NO CLOUDS BELOW 12,000 FEET WITH NO
SIGNIFICANT WEATHER AND/OR OBSTRUCTIONS TO VISIBILITY.


NDZ001>003-009>011-017-301900-
NORTHWEST NORTH DAKOTA

CITY           SKY/WX    TMP DP  RH WIND       PRES   REMARKS
WILLISTON      SUNNY     63  37  38 NW17      29.96R
6HR MIN TEMP:  39; 6HR MAX TEMP:  63;

MINOT          SUNNY     61  36  39 NW20G33   29.87R
$$

NDZ018>021-031>035-040>046-301900-
SOUTHWEST NORTH DAKOTA

CITY           SKY/WX    TMP DP  RH WIND       PRES   REMARKS
BISMARCK       SUNNY     63  36  36 NW22G33   29.89R
6HR MIN TEMP:  34; 6HR MAX TEMP:  64;

DICKINSON      SUNNY     62  34  35 NW20G28   29.95R
GARRISON         N/A     62  38  40 N26G37    29.88R
6HR MIN TEMP:  37; 6HR MAX TEMP:  62;

HETTINGER ARPT SUNNY     64  32  30 NW25G33   29.98R
$$

NDZ004>008-012>016-024-026-027-054-301900-
NORTHEAST NORTH DAKOTA

CITY           SKY/WX    TMP DP  RH WIND       PRES   REMARKS
GRAND FORKS    CLOUDY    43  37  79 NE5       29.86R
DEVILS LAKE    SUNNY     50  37  62 SE5       29.82R
$$

NDZ022-023-025-028>030-036>039-047>053-301900-
SOUTHEAST NORTH DAKOTA

CITY           SKY/WX    TMP DP  RH WIND       PRES   REMARKS
FARGO          PTSUNNY   56  33  42 SE16G23   29.77F
6HR MIN TEMP:  37; 6HR MAX TEMP:  58;

JAMESTOWN      SUNNY     63  36  36 NW21G28   29.79S
$$



USA.gov is the U.S. government's official web portal to all federal, state and local government web resources and services.